Overview Statistics Trail Chart Weather Telemetry Raw packets
 

This is the latest recevied weather packets stored in our database for station/object K7OWW-2. If no packets are shown the sender has not sent any weather packets the latest 10 day(s).

<< 29 30 31 32 33 34 35 >>
Time Temp. Humidity Pressure Rain* Wind** Luminosity Snow
1788104638 1.67° C 94% 1021.5 hPa 0 mm - - -
1788104336 1.11° C 94% 1021.5 hPa 0 mm - - -
1788103736 0° C 93% 1021.7 hPa 0 mm - - -
1788103138 -0.56° C 92% 1021.7 hPa 0 mm - - -
1788102536 -1.11° C 92% 1021.8 hPa 0 mm - - -
1788101936 -1.67° C 93% 1021.8 hPa 0 mm - - -
1788101336 -2.22° C 93% 1021.8 hPa 0 mm - - -
1788100736 -2.78° C 93% 1021.7 hPa 0 mm - - -
1788100136 -3.33° C 93% 1021.6 hPa 0 mm - - -
1788099536 -3.33° C 93% 1021.5 hPa 0 mm - - -
1788099238 -3.33° C 93% 1021.5 hPa 0 mm - - -
1788098936 -3.33° C 93% 1021.5 hPa 0 mm - - -
1788098336 -3.89° C 93% 1021.4 hPa 0 mm - - -
1788097736 -3.89° C 92% 1021.3 hPa 0 mm - - -
1788097438 -3.89° C 92% 1021.2 hPa 0 mm - - -
1788097136 -3.89° C 92% 1021.1 hPa 0 mm - - -
1788096536 -3.33° C 93% 1020.8 hPa 0 mm - - -
1788095936 -3.33° C 93% 1020.7 hPa 0 mm - - -
1788095638 -3.33° C 93% 1020.7 hPa 0 mm - - -
1788095348 -3.33° C 93% 1020.7 hPa 0 mm - - -
1788094736 -3.33° C 93% 1020.6 hPa 0 mm - - -
1788094136 -3.33° C 93% 1020.6 hPa 0 mm - - -
1788093838 -3.33° C 92% 1020.6 hPa 0 mm - - -
1788093536 -3.33° C 92% 1020.5 hPa 0 mm - - -
1788092936 -3.33° C 93% 1020.4 hPa 0 mm - - -

* Rain latest hour (hover to see other rain measurements)
** Current wind speed in m/s (hover to see current wind gust speed)